Tracking 19795 objects as of 19-Jul-2019
HD Live streaming from Space Station
objects crossing your sky now

FENGYUN 1C DEB

Track FENGYUN 1C DEB now!
10-day predictions


NORAD ID: 31989
Int'l Code: 1999-025CPS
Perigee: 845.9 km
Apogee: 1,023.7 km
Inclination: 99.5 °
Period: 103.6 minutes
Semi major axis: 7305 km
RCS: 0.0027 m2 (small)
Launch date: May 10, 1999
Source: People's Republic of China (PRC)
Launch site: Taiyaun Space Center, China (TSC)

Note: This is SATELLITE DEBRIS
aabbcc
Your satellite tracking list
Your tracking list is empty




NASA's NSSDC Master Catalog

Two Line Element Set (TLE):
1 31989U 99025CPS 19198.23724861  .00000130  00000-0  13345-3 0  9999
2 31989  99.4680 208.0818 0121664 122.8876 298.1862 13.90282018612761
Source of the keplerian elements: AFSPC